Location: Unspecified
(0.0000°N, 0.0000°E)
Time: 00:58:21
(UTC+00:00)

BEESAT - Visible Passes

Search period start: 27 May 2019 00:00
Search period end: 06 June 2019 00:00
Orbit: 701 x 708 km, 98.6° (Epoch: 25 May)

Date Brightness Start Highest point End Pass type
(mag) Time Alt. Az. Time Alt. Az. Time Alt. Az.
27 May ? 04:46:31 10° S 04:51:14 62° WSW 04:55:56 10° NNW visible
28 May ? 03:53:15 10° SE 03:57:07 25° ENE 04:00:58 10° NNE visible
28 May ? 05:31:32 10° SW 05:34:34 17° WSW 05:37:37 10° WNW visible
29 May ? 04:35:42 10° SSE 04:40:29 88° WSW 04:45:15 10° NNW visible
30 May ? 03:43:10 10° ESE 03:46:22 18° ENE 03:49:33 10° NE visible
30 May ? 05:20:04 10° SSW 05:23:50 23° WSW 05:27:36 10° NW visible
31 May ? 04:25:00 10° SSE 04:29:44 66° ENE 04:34:27 10° N visible
01 Jun ? 03:33:35 10° ESE 03:35:38 13° ENE 03:37:39 10° NE visible
01 Jun ? 05:08:50 10° SSW 05:13:06 32° WSW 05:17:20 10° NW visible
02 Jun ? 04:14:23 10° SSE 04:18:59 46° ENE 04:23:32 10° N visible
03 Jun ? 04:57:47 10° S 05:02:20 45° WSW 05:06:54 10° NNW visible
04 Jun ? 04:03:57 10° SE 04:08:13 33° ENE 04:12:28 10° NNE visible
05 Jun ? 04:46:51 10° S 04:51:35 65° WSW 04:56:18 10° NNW visible
